Regional Weather Roundup
Issued by NWS Pendleton, OR

Home | Current Version | Previous Version | Text Only | Print | Product List | Glossary On
Versions: 1 2 3 4 5 6 7 8 9 10 11 12 13 14 15 16 17 18 19 20 21 22 23 24 25 26 27 28 29 30 31 32 33 34 35 36 37 38 39 40 41 42 43 44 45 46 47 48 49 50
000
ASUS46 KPDT 030825
RWRPDT
PENDLETON REGIONAL WEATHER ROUNDUP
NATIONAL WEATHER SERVICE PENDLETON OREGON
100 AM PDT THU SEP 3 2015

NOTE: FAIR INDICATES FEW OR NO CLOUDS BELOW 12,000 FEET WITH NO
SIGNIFICANT WEATHER AND/OR OBSTRUCTIONS TO VISIBILITY.

# INDICATES UNOFFICIAL STATION AND DATA

WAZ520-030910-
EAST SLOPES OF WASHINGTON CASCADES

CITY            SKY/WX      TMP DP  RH  WIND    PRES   REMARKS
#BULLFROG 2SW   N/A         44  41  89  CALM    27.55S
#BUMPING DAM    N/A         43  N/A N/A W7      N/A
#CLE ELUM HS    N/A         47  41  79  CALM    29.89S
#CLE ELUM LAKE  N/A         44  40  86  CALM    29.87S
#CLIFFDEL 2NW   N/A         44  38  79  NW1     N/A
#GLENWOOD       N/A         38  35  89  CALM    29.90R
#MANASTASH CYN  N/A         40  32  73  CALM    29.90R
#NELSON         N/A         46  44  93  CALM    29.91S
#NELSON 3SW     N/A         44  42  93  CALM    30.09S
#NILE           N/A         46  39  76  CALM    29.16S
#RONALD 2NW     N/A         47  -7  10  NE1     29.80F
#SNOWDEN        N/A         43  34  70  CALM    N/A
#TEANAWAY 4NE   N/A         43  38  82  CALM    N/A
#TROUT LAKE 1NE N/A         48  41  77  W2      29.91R
$$

WAZ521-030910-
SIMCOE HIGHLANDS

CITY            SKY/WX      TMP DP  RH  WIND    PRES   REMARKS
#BICKLETON HS   N/A         45  26  47  N5      N/A
#CENTERVILLE 4W N/A         50  46  86  CALM    29.68S
#CENTERVILLE 1SWN/A         48  43  83  W9      29.88R
#GOLDENDALE     N/A         49  43  80  W6      N/A
#GOLDENDALE 1NE N/A         48  38  68  CALM    N/A
#GOLDENDALE 5WNWN/A         46  39  76  NW2     29.89R
#GOODNOE HILLS  N/A         53  45  74  W12     N/A
#LYLE 6NE       N/A         51  48  89  S6      29.89R
$$

WAZ026-030910-
KITTITAS VALLEY

CITY            SKY/WX      TMP DP  RH  WIND    PRES   REMARKS
ELLENSBURG AP   CLEAR       51  39  63  NW14    29.90S
#ELLENSBURG CWU N/A         49  40  71  NW6     29.83S
#ELLENSBURG 3NE N/A         48  40  74  CALM    29.91S
#ELLENSBURG 1E  N/A         50  37  61  CALM    N/A
#KITTITAS 4N    N/A         49  39  68  N5      29.90S
#KITTITAS 3S    N/A         46  41  83  CALM    29.87R
#THORP 6N       N/A         46  39  76  N7      29.89S
$$

WAZ027-030910-
YAKIMA VALLEY

CITY            SKY/WX      TMP DP  RH  WIND    PRES   REMARKS
SUNNYSIDE AP    PTCLDY      44  41  89  CALM    29.91R
YAKIMA AIRPORT  CLEAR       51  38  61  CALM    29.91R
YAKIMA-VAGABOND CLEAR       50  38  63  E10     29.91R
#DONALD 2NE     N/A         51  34  52  W1      28.76R
#GRANDVIEW      N/A         52  39  61  CALM    29.90R
#MABTON         N/A         51  39  63  S2      29.91
#MOXEE 2E       N/A         51  33  50  SW3     29.91R
#NACHES 2SW     N/A         50  41  71  NW2     29.90S
#OUTLOOK DOT    N/A         N/A N/A N/A W1      N/A
#SELAH 8E       N/A         48  38  68  NW6     N/A
#TERRACE HTS    N/A         53  39  59  CALM    29.84R
#TOPPENISH      N/A         54  41  61  CALM    29.80R
#WAPATO 4NE     N/A         51  34  52  W1      28.76R
#W YAKIMA       N/A         52  41  66  NW2     29.88R
#WHITE SWAN 5E  N/A         53  39  59  CALM    29.89R
#WILEY CITY 3W  N/A         45  34  65  CALM    29.87R
$$

WAZ028-030910-
LOWER COLUMBIA BASIN...WASHINGTON

CITY            SKY/WX      TMP DP  RH  WIND    PRES   REMARKS
HANFORD         PTCLDY      58  38  47  W15     29.87R
PASCO           CLOUDY      61  41  48  W6      29.90R
#BENTON CITY    N/A         53  42  66  W6      29.78R
#CONNELL 5N     N/A         53  40  61  CALM    29.84R
#CONNELL 5NW    N/A         53  42  66  CALM    29.81R
#ELTOPIA 6NW    N/A         58  42  55  W7      28.85R
#KAHLOTUS       N/A         55  37  51  N12     29.83R
#KENNEWICK      N/A         44  41  89  CALM    27.55S
#KENNEWICK 3S   N/A         56  42  59  CALM    29.87R
#PASCO-BROADMOORN/A         60  42  51  S3      29.78R
#PATERSON       N/A         58  45  62  NW2     29.88
#PROSSER        N/A         56  36  47  SW6     29.88R
#SAGEMOOR 2W    N/A         58  42  55  S2      29.71R
#TOUCHET 2S     N/A         61  46  58  W3      29.86R
#WEST PASCO     N/A         61  42  50  CALM    29.85R
$$

WAZ029-030910-
FOOTHILLS OF THE BLUES...WASHINGTON

CITY            SKY/WX      TMP DP  RH  WIND    PRES   REMARKS
WALLA WALLA AP  CLOUDY      60  45  58  S8      29.92R
#DAYTON SCHOOL  N/A         58  38  47  NE5     29.90R
#LOWDEN 2SE     N/A         61  47  60  SW6     29.87R
#PLEASANT VIEW 1N/A         49  39  68  SW7     29.88R
#PRESCOTT       N/A         58  45  62  CALM    29.87R
#SUDBURY        N/A         60  N/A N/A CALM    N/A
#WHITMAN COLLEGEN/A         60  46  60  S7      29.94R
#WAITSBURG 5S   N/A         56  44  64  S7      29.96R
#WAITSBURG 8N   N/A         55  22  27  S9      29.76R
#WALLA WALLA U  N/A         61  47  60  CALM    29.89R
#WHITMAN MISSIONN/A         61  48  62  SW1     29.90R
$$

WAZ030-030910-
BLUE MOUNTAINS...WASHINGTON

CITY            SKY/WX      TMP DP  RH  WIND    PRES   REMARKS
#DIXIE 5SE      N/A         52  43  71  SW7     29.87R
#SKI BLUEWOOD   N/A         45  39  79  S1      29.93R
$$

ORZ009-041-WAZ024-030910-
COLUMBIA RIVER GORGE

CITY            SKY/WX      TMP DP  RH  WIND    PRES   REMARKS
THE DALLES AP   CLEAR       55  45  69  NW7     29.94R
#ARLINGTON AIRPON/A         56  44  64  SW8     29.82S
#MOSIER 1S      N/A         53  40  61  W6      29.96S

$$

ORZ510-030910-
NORTH CENTRAL OREGON

CITY            SKY/WX      TMP DP  RH  WIND    PRES   REMARKS
#CHENOWITH 1W   N/A         50  45  83  NW14    N/A
#DUFUR 9E       N/A         50  42  74  W8      29.96R
#GRASS VALLEY 1SN/A         46  40  79  CALM    29.95R
#MAUPIN SCHOOL  N/A         56  45  66  W7      29.96R
#MORO SCHOOL    N/A         50  45  83  SW1     29.96R
#SHANIKO 4NW    N/A         45  39  79  W9      29.96R
#TYGH VALLEY 2NEN/A         50  41  71  CALM    29.91R
#WAPANITIA AIRPON/A         52  43  71  W12     29.91S
#WASCO AIRPORT  N/A         51  43  74  NW6     N/A
#WASCO 5NE      N/A         52  45  77  SW8     29.90R
$$

ORZ511-030910-
CENTRAL OREGON

CITY            SKY/WX      TMP DP  RH  WIND    PRES   REMARKS
BEND AIRPORT    CLEAR       41  36  82  CALM    29.99R
PRINEVILLE AP   PTCLDY      37  32  82  W5      29.98R
REDMOND AIRPORT CLEAR       47  38  71  W3      29.98R
#BEND 1SW       N/A         39  34  82  NE1     N/A
#BEND-AWBREY    N/A         44  37  76  CALM    29.90R
#BEND-KIM LN    N/A         41  37  86  CALM    29.95S
#CULVER         N/A         47  39  74  CALM    29.93S
#LAKE BILLY CHINN/A         49  26  40  CALM    30.04R
#MADRAS         N/A         48  39  71  CALM    N/A
#POWELL BUTTE 3EN/A         42  38  86  S2      N/A
#POWELL BUTTE   N/A         44  36  73  SW1     29.60S
#PRINEVILLE 3N  N/A         42  38  86  CALM    29.88R
#WARM SPRINGS   N/A         51  40  66  CALM    29.93S

$$


ORZ509-030910-
EAST SLOPES OF OREGON CASCADES

CITY            SKY/WX      TMP DP  RH  WIND    PRES   REMARKS
#CAMP SHERMAN   N/A         44  37  76  CALM    29.91F
#LA PINE 4NW    N/A         37  33  85  CALM    29.94S
#SISTERS AIRPOR N/A         42  41  96  CALM    30.17S
#SISTERS 1NW    N/A         40  34  79  N3      N/A
#SISTERS 3N     N/A         43  35  73  CALM    30.02R
#SUNRIVER       N/A         40  35  82  CALM    29.78R
#TUMALO 3W      N/A         44  36  73  SW2     29.80R

$$

ORZ044-030910-
LOWER COLUMBIA BASIN...OREGON

CITY            SKY/WX      TMP DP  RH  WIND    PRES   REMARKS
HERMISTON       LGT RAIN    61  45  56  W13     29.90R
#BOARDMAN SCHOOLN/A         60  48  64  SW5     29.91R
#ECHO 8SW       N/A         61  43  51  W9      29.92R
#IONE SCHOOL    N/A         59  42  53  SW5     29.91R
#IRRIGON 4NW    N/A         62  49  62  S8      N/A
#UMATILLA SCHOOLN/A         59  50  72  W6      29.94R
#UMATILLA       N/A         62  45  54  SW7     29.82R
$$

ORZ507-030910-
NORTHERN FOOTHILLS OF THE BLUES

CITY            SKY/WX      TMP DP  RH  WIND    PRES   REMARKS
PENDLETON AIRPT LGT RAIN    57  43  59  W8      29.92R
#ADAMS 3WNW     N/A         55  43  64  SW3     29.90R
#CAYUSE         N/A         58  44  60  CALM    29.89R
#HELIX SCHOOL   N/A         56  45  66  SW3     29.89R
#HELIX 3N       N/A         55  45  69  SW9     29.90R
#HOLDMAN 5SE    N/A         57  45  64  SW1     29.93R
#HOLDMAN 6E     N/A         56  44  64  N10     29.69R
#M-F GROVE ELEM N/A         59  44  57  SW6     29.91R
#M-FREEWATER 5SEN/A         59  44  57  CALM    29.93R
#PENDLETON DNTN N/A         61  38  42  CALM    29.96R
#PDT AQUATIC CTRN/A         60  40  47  CALM    29.91R
#PDT SUNRIDGE   N/A         59  44  57  CALM    29.94R
#PENDLETON 7NW  N/A         59  44  57  CALM    32.07S
#PILOT ROCK     N/A         59  38  45  S1      29.96R
#TUTUILLA       N/A         57  47  69  S3      29.91R
#UMAPINE 2E     N/A         60  48  64  SW1     29.89R
#WESTON SCHOOL  N/A         56  40  55  NW3     29.85R

$$

ORZ508-030910-
SOUTHERN FOOTHILLS OF THE BLUES

CITY            SKY/WX      TMP DP  RH  WIND    PRES   REMARKS
#AJAX           N/A         51  35  54  CALM    29.90R
#CONDON 5W      N/A         45  38  76  W5      29.93S
#FOSSIL SCHOOL  N/A         66  51  58  CALM    29.94S
#HEPPNER 4NE    N/A         52  42  69  SW5     29.89R
#LEXINGTON 2SE  N/A         59  43  55  W2      29.90R
#OLEX 4N        N/A         54  44  69  SW12    29.92R
#RUGGS 5NE      N/A         50  43  77  SW3     30.14R
#RUGGS 2SW      N/A         50  40  68  W3      29.92R

$$

ORZ502-503-030910-
BLUE MOUNTAINS

CITY            SKY/WX      TMP DP  RH  WIND    PRES   REMARKS
MEACHAM         CLOUDY      47  41  79  CALM    29.97R
#HEPPNER 15SE   N/A         44  39  82  W1      29.86R
#LONG CREEK HS  N/A         49  46  89  CALM    29.90F
#PIKES PEAK     N/A         50  41  71  SW13    27.99S
#TOLLGATE       N/A         42  38  86  SW3     29.84R
#TROY SCHOOL    N/A         57  52  83  CALM    29.72R
#UKIAH          N/A         48  44  86  CALM    29.94R
#WESTON 4E      N/A         50  40  68  SW5     29.85R
$$

ORZ505-030910-
JOHN DAY BASIN

CITY            SKY/WX      TMP DP  RH  WIND    PRES   REMARKS
JOHN DAY        CLOUDY      52  45  77  CALM    29.95S
#JOHN DAY KJDY  N/A         54  51  90  CALM    29.88R
#MITCHELL       N/A         52  45  77  CALM    30.13S
#MITCHELL 8NW   N/A         49  35  58  CALM    30.10R
#MONUMENT HS    N/A         57  41  55  N2      29.95R
#MT. VERNON 5SE N/A         49  43  80  CALM    29.91R
#SPRAY SCHOOL   N/A         54  N/A N/A E1      N/A
$$

ORZ506-030910-
OCHOCO AND JOHN DAY HIGHLANDS

CITY            SKY/WX      TMP DP  RH  WIND    PRES   REMARKS
#PINE MTN OBS   N/A         36  34  92  CALM    N/A
#PRAIRIE CITY   N/A         50  49  96  CALM    29.95S
#SENECA         N/A         48  N/A N/A CALM    N/A
#SENECA 9NW     N/A         45  43  93  CALM    29.81R
$$

ORZ049-030910-
GRANDE RONDE VALLEY

CITY            SKY/WX      TMP DP  RH  WIND    PRES   REMARKS
LA GRANDE       CLOUDY      52  36  54  NW12    29.93R
#COVE           N/A         50  49  96  CALM    29.97R
#COVE SCHOOL    N/A         50  48  93  CALM    29.98R
#ELGIN 3N       N/A         53  44  71  CALM    29.91R
#ELGIN 1E       N/A         52  47  83  CALM    N/A
#ISLAND CITY 4N N/A         49  46  89  CALM    29.99S
#LA GRANDE ELEM N/A         52  42  69  W2      29.96R
#UNION 1S       N/A         52  48  86  CALM    29.77R
$$

ORZ050-030910-
WALLOWA COUNTY

CITY            SKY/WX      TMP DP  RH  WIND    PRES   REMARKS
#ENTERPRISE HS  N/A         49  47  93  CALM    29.95R
#IMNAHA SCHOOL  N/A         57  54  90  VRB1    29.90S
#IMNAHA 10S     N/A         53  50  89  CALM    29.91R
#JOSEPH 3N      N/A         48  42  80  CALM    29.96S
#JOSEPH 3W      N/A         47  46  96  CALM    29.80S
#LOSTINE        N/A         50  48  93  CALM    29.66S
#MT HOWARD 8000 N/A         38  36  92  CALM    30.01S
#PROMISE 1S     N/A         49  46  89  E5      29.96R
#WALLOWA SCHOOL N/A         51  49  93  CALM    29.91R



$$



USA.gov is the U.S. government's official web portal to all federal, state and local government web resources and services.